Voltar ao catálogo

SSETI-EXPRESS DEB

AtivoSSO
NORAD 28897·DEBRIS·🇪🇺 EU

Lançado Oct 27, 2005 de Plesetsk Cosmodrome

Loading…

Próximas Passagens (próximas 24 horas)

TLE

AtualizadoSource: Space-Track

Época: Sep 14, 2026, 09:58 UTC

1 28897U 05043H   26257.41595968  .00001111  00000-0  17650-3 0  9991
2 28897  98.3053  57.3949 0011989 265.7254 124.3112 14.74152073107455

Acompanhe SSETI-EXPRESS DEB em tempo real com AllMySat

Download on the App Store